DW2182 Weather Reports


Display with metric or nautical units.
time (UTC)temp
F
wind
direction
speed
MPH
gust
MPH
rain 1hr
in
rain 24hr
in
rain mn
in
humidity
%
barometer
mb
20260508045536 45 0.0 0.0 0.00 0.00 0.00 56 1009.6
20260508044516 45 0.0 0.0 0.00 0.00 0.00 55 1009.7
20260508043516 46 0.0 0.0 0.00 0.00 0.00 54 1009.7
20260508042516 46 0.0 0.0 0.00 0.00 0.00 54 1009.8
20260508041536 47 0.0 0.0 0.00 0.00 0.00 53 1009.8
20260508040516 48 0.0 0.0 0.00 0.00 0.00 53 1009.9
20260508035516 48 0.0 0.0 0.00 0.00 0.00 52 1009.9
20260508034516 49 0.0 0.0 0.00 0.00 0.00 50 1009.8
20260508033516 50 0.0 0.0 0.00 0.00 0.00 47 1009.9
20260508032516 51 0.0 0.0 0.00 0.00 0.00 44 1009.9
20260508031515 52 0.0 0.0 0.00 0.00 0.00 42 1009.8
20260508030536 53 0.0 0.0 0.00 0.00 0.00 40 1009.8
20260508025536 53 0.0 0.0 0.00 0.00 0.00 38 1009.9
20260508024515 54 0.0 0.0 0.00 0.00 0.00 37 1009.8
20260508023515 55 0.0 0.0 0.00 0.00 0.00 36 1009.7
20260508022536 56 0.0 0.0 0.00 0.00 0.00 37 1009.7
20260508021516 57 0.0 1.0 0.00 0.00 0.00 32 1009.6
20260508020536 58 0.0 0.0 0.00 0.00 0.00 31 1009.5
20260508015515 59 0.0 2.0 0.00 0.00 0.00 29 1009.3
20260508014535 60 0.0 1.0 0.00 0.00 0.00 29 1009.2
20260508013535 60 0 1.0 4.0 0.00 0.00 0.00 27 1009.1
20260508012516 61 158 2.0 6.0 0.00 0.00 0.00 27 1009.0
20260508011516 61 135 3.0 6.0 0.00 0.00 0.00 26 1009.0
20260508010536 61 135 3.0 7.0 0.00 0.00 0.00 27 1008.8
20260508005536 62 135 2.0 5.0 0.00 0.00 0.00 26 1008.7
20260508004516 62 0 3.0 5.0 0.00 0.00 0.00 25 1008.5
20260508003515 62 135 4.0 8.0 0.00 0.00 0.00 26 1008.4
20260508002516 62 135 3.0 5.0 0.00 0.00 0.00 25 1008.3
20260508001535 62 135 3.0 7.0 0.00 0.00 0.00 24 1008.5
20260508000515 63 135 3.0 7.0 0.00 0.00 0.00 24 1008.4
20260507235515 63 135 3.0 7.0 0.00 0.00 0.00 25 1008.5
20260507234516 63 0 2.0 6.0 0.00 0.00 0.00 24 1008.5
20260507233515 63 135 3.0 7.0 0.00 0.00 0.00 24 1008.6
20260507232516 63 135 4.0 9.0 0.00 0.00 0.00 23 1008.6
20260507231517 63 135 6.0 12.0 0.00 0.00 0.00 23 1008.7
20260507230537 64 135 6.0 13.0 0.00 0.00 0.00 22 1008.6
20260507225516 64 158 5.0 16.0 0.00 0.00 0.00 23 1008.8
20260507224517 64 135 3.0 9.0 0.00 0.00 0.00 24 1008.8
20260507223515 64 158 6.0 13.0 0.00 0.00 0.00 22 1009.0
20260507222517 65 135 7.0 14.0 0.00 0.00 0.00 24 1009.0
20260507221516 65 135 6.0 11.0 0.00 0.00 0.00 23 1009.1
20260507220537 65 135 7.0 13.0 0.00 0.00 0.00 22 1009.3
20260507215517 65 135 5.0 10.0 0.00 0.00 0.00 21 1009.4
20260507214518 66 135 4.0 9.0 0.00 0.00 0.00 24 1009.4
20260507213517 65 135 5.0 10.0 0.00 0.00 0.00 22 1009.7
20260507212517 66 113 3.0 9.0 0.00 0.00 0.00 24 1009.6
20260507211517 66 135 4.0 10.0 0.00 0.00 0.00 23 1009.8
20260507210517 65 135 5.0 10.0 0.00 0.00 0.00 24 1009.6
20260507205517 65 135 4.0 10.0 0.00 0.00 0.00 22 1009.8
20260507204517 65 135 5.0 14.0 0.00 0.00 0.00 23 1009.9
20260507203517 64 135 3.0 9.0 0.00 0.00 0.00 23 1010.0
20260507202517 65 135 5.0 12.0 0.00 0.00 0.00 23 1010.2
20260507201517 65 135 5.0 11.0 0.00 0.00 0.00 23 1010.3
20260507200517 64 135 4.0 7.0 0.00 0.00 0.00 23 1010.4
20260507195517 65 135 7.0 11.0 0.00 0.00 0.00 23 1010.6
20260507194517 65 135 3.0 7.0 0.00 0.00 0.00 26 1010.6
20260507193517 65 135 5.0 10.0 0.00 0.00 0.00 26 1010.8
20260507192517 65 135 5.0 13.0 0.00 0.00 0.00 25 1010.7
20260507191517 64 135 5.0 13.0 0.00 0.00 0.00 24 1010.8
20260507190517 63 135 3.0 10.0 0.00 0.00 0.00 26 1010.7
20260507185517 63 158 7.0 15.0 0.00 0.00 0.00 24 1010.9
20260507184537 63 113 4.0 7.0 0.00 0.00 0.00 25 1010.8
20260507183517 62 135 4.0 10.0 0.00 0.00 0.00 29 1011.1
20260507182517 62 158 5.0 9.0 0.00 0.00 0.00 26 1011.0
20260507181537 62 0 4.0 10.0 0.00 0.00 0.00 26 1011.1
20260507180517 61 0 5.0 18.0 0.00 0.00 0.00 28 1011.1
20260507175517 61 23 4.0 11.0 0.00 0.00 0.00 32 1011.4
20260507174517 60 158 4.0 9.0 0.00 0.00 0.00 28 1011.3
20260507173518 61 113 5.0 13.0 0.00 0.00 0.00 27 1011.4
20260507172518 60 135 3.0 7.0 0.00 0.00 0.00 29 1011.5
20260507171517 60 23 5.0 13.0 0.00 0.00 0.00 30 1011.6
20260507170517 59 135 2.0 5.0 0.00 0.00 0.00 30 1011.7
20260507165517 58 158 4.0 8.0 0.00 0.00 0.00 32 1011.6
20260507164517 58 0 5.0 10.0 0.00 0.00 0.00 31 1011.7
20260507163517 57 45 2.0 5.0 0.00 0.00 0.00 36 1011.7
20260507162537 56 45 3.0 11.0 0.00 0.00 0.00 37 1011.7
20260507161517 56 23 3.0 8.0 0.00 0.00 0.00 34 1011.7
20260507160517 55 45 3.0 9.0 0.00 0.00 0.00 35 1011.8
20260507155517 55 158 5.0 9.0 0.00 0.00 0.00 34 1011.8
20260507154517 54 45 3.0 9.0 0.00 0.00 0.00 37 1011.9
20260507153537 53 45 3.0 6.0 0.00 0.00 0.00 40 1011.9
20260507152537 52 45 4.0 9.0 0.00 0.00 0.00 40 1011.9
20260507151517 52 45 2.0 5.0 0.00 0.00 0.00 41 1011.9
20260507150517 51 45 4.0 12.0 0.00 0.00 0.00 46 1011.9
20260507145518 51 45 3.0 9.0 0.00 0.00 0.00 47 1011.9
20260507144517 51 45 3.0 9.0 0.00 0.00 0.00 48 1012.0
20260507143517 50 0 3.0 8.0 0.00 0.00 0.00 48 1012.0
20260507142517 50 158 1.0 6.0 0.00 0.00 0.00 50 1012.1
20260507141517 50 23 2.0 6.0 0.00 0.00 0.00 50 1012.2
20260507140517 50 45 2.0 4.0 0.00 0.00 0.00 50 1012.3
20260507135517 49 45 2.0 5.0 0.00 0.00 0.00 50 1012.1
20260507134517 49 45 2.0 5.0 0.00 0.00 0.00 51 1012.2
20260507133517 48 45 2.0 4.0 0.00 0.00 0.00 54 1012.1
20260507132517 46 68 2.0 6.0 0.00 0.00 0.00 56 1012.3
20260507131517 45 45 2.0 3.0 0.00 0.00 0.00 60 1012.3
20260507130517 44 68 1.0 3.0 0.00 0.00 0.00 65 1012.3
20260507125517 42 0 2.0 3.0 0.00 0.00 0.00 66 1012.1
20260507124537 40 0 1.0 2.0 0.00 0.00 0.00 70 1012.2
20260507123517 39 0.0 0.0 0.00 0.00 0.00 74 1012.3
20260507122517 37 0.0 0.0 0.00 0.00 0.00 78 1012.2
20260507121517 36 0.0 0.0 0.00 0.00 0.00 79 1012.3
20260507120517 35 0.0 0.0 0.00 0.00 0.00 79 1012.3
20260507115517 34 0.0 0.0 0.00 0.00 0.00 78 1012.1
20260507114517 34 0.0 0.0 0.00 0.00 0.00 77 1012.2
20260507113517 34 0.0 0.0 0.00 0.00 0.00 76 1012.3
20260507112517 35 0.0 0.0 0.00 0.00 0.00 76 1012.4
20260507111536 35 0.0 0.0 0.00 0.00 0.00 76 1012.5
20260507110517 35 0.0 0.0 0.00 0.00 0.00 76 1012.5
20260507105557 35 0.0 0.0 0.00 0.00 0.00 76 1012.6
20260507104516 34 0.0 0.0 0.00 0.00 0.00 75 1012.6
20260507103516 35 0.0 0.0 0.00 0.00 0.00 75 1012.5
20260507102516 35 0.0 0.0 0.00 0.00 0.00 75 1012.4
20260507101517 35 0.0 0.0 0.00 0.00 0.00 74 1012.6
20260507100537 35 0.0 0.0 0.00 0.00 0.00 74 1012.7
20260507095516 35 0.0 0.0 0.00 0.00 0.00 73 1012.7
20260507094536 36 0.0 0.0 0.00 0.00 0.00 73 1012.8
20260507093516 36 0.0 0.0 0.00 0.00 0.00 72 1013.0
20260507092517 36 0.0 0.0 0.00 0.00 0.00 72 1012.9
20260507091557 36 0.0 0.0 0.00 0.00 0.00 72 1012.9
20260507090516 37 0.0 0.0 0.00 0.00 0.00 72 1012.8
20260507085516 37 0.0 0.0 0.00 0.00 0.00 71 1012.7
20260507084517 37 0.0 0.0 0.00 0.00 0.00 70 1012.7
20260507083556 38 0.0 0.0 0.00 0.00 0.00 69 1012.7
20260507082516 38 0.0 0.0 0.00 0.00 0.00 69 1012.9
20260507081517 38 0.0 0.0 0.00 0.00 0.00 70 1012.9
20260507080516 38 0.0 0.0 0.00 0.00 0.00 69 1013.1
20260507075516 39 0.0 0.0 0.00 0.00 0.00 70 1013.3
20260507074516 39 0.0 0.0 0.00 0.00 0.00 69 1013.2
20260507073517 39 0.0 0.0 0.00 0.00 0.00 70 1013.2
20260507072516 39 0.0 0.0 0.00 0.00 0.00 70 1013.2
20260507071516 39 0.0 0.0 0.00 0.00 0.00 70 1013.5
20260507070517 39 0.0 0.0 0.00 0.00 0.00 69 1013.5
20260507065516 40 0.0 0.0 0.00 0.00 0.00 69 1013.6
20260507064516 40 0.0 0.0 0.00 0.00 0.00 68 1013.8
20260507063516 40 0.0 0.0 0.00 0.00 0.00 67 1013.8
20260507062517 40 0.0 0.0 0.00 0.00 0.00 65 1014.1
20260507061516 40 0.0 0.0 0.00 0.00 0.00 64 1014.1
20260507060516 40 0.0 0.0 0.00 0.00 0.00 64 1014.2
20260507055517 40 0.0 0.0 0.00 0.00 0.00 65 1014.2
20260507054516 40 0.0 0.0 0.00 0.00 0.00 65 1014.1
20260507053536 39 0.0 0.0 0.00 0.00 0.00 66 1014.1
20260507052517 39 0.0 0.0 0.00 0.00 0.00 65 1014.0
20260507051517 39 0.0 0.0 0.00 0.00 0.00 65 1014.0
20260507050516 39 0.0 0.0 0.00 0.00 0.00 64 1014.0